S51UL-6 Weather Reports


Display with metric or nautical units.
time (UTC)temp
F
wind
direction
speed
MPH
gust
MPH
rain 1hr
in
rain 24hr
in
rain mn
in
humidity
%
barometer
mb
20260506093817 70 113 1.0 5.0 0.00 0.00 0.00 56 1011.0
20260506093316 69 113 2.0 6.0 0.00 0.00 0.00 55 1011.2
20260506092816 69 158 3.0 6.0 0.00 0.00 0.00 54 1011.2
20260506092316 70 225 0.0 0.0 0.00 0.00 0.00 55 1011.2
20260506091816 70 225 0.0 1.0 0.00 0.00 0.00 55 1011.2
20260506091319 70 225 0.0 1.0 0.00 0.00 0.00 54 1011.1
20260506090817 71 203 2.0 9.0 0.00 0.00 0.00 53 1011.1
20260506090316 71 248 2.0 9.0 0.00 0.00 0.00 52 1011.0
20260506085816 72 158 2.0 7.0 0.00 0.00 0.00 52 1011.2
20260506085318 73 158 4.0 7.0 0.00 0.00 0.00 51 1011.1
20260506084817 74 180 4.0 6.0 0.00 0.00 0.00 51 1011.1
20260506084316 73 68 3.0 6.0 0.00 0.00 0.00 52 1011.0
20260506083818 72 270 3.0 6.0 0.00 0.00 0.00 53 1011.1
20260506083317 71 180 4.0 8.0 0.00 0.00 0.00 53 1011.0
20260506082818 71 248 4.0 8.0 0.00 0.00 0.00 53 1010.8
20260506082317 70 135 3.0 6.0 0.00 0.00 0.00 55 1010.8
20260506081817 69 180 2.0 5.0 0.00 0.00 0.00 54 1010.9
20260506080817 70 225 2.0 8.0 0.00 0.00 0.00 53 1010.7
20260506080317 70 180 4.0 8.0 0.00 0.00 0.00 53 1010.7
20260506073319 68 135 1.0 5.0 0.00 0.00 0.00 64 1010.6
20260506072818 67 158 4.0 6.0 0.00 0.00 0.00 66 1010.5
20260506071318 65 158 1.0 4.0 0.00 0.00 0.00 69 1010.5
20260506070818 65 135 1.0 4.0 0.00 0.00 0.00 72 1010.5
20260506070318 64 158 0.0 2.0 0.00 0.00 0.00 73 1010.4
20260506061818 56 135 0.0 0.0 0.00 0.00 0.00 87 1011.0
20260506061320 56 135 0.0 0.0 0.00 0.00 0.00 88 1011.0
20260506060818 54 135 0.0 0.0 0.00 0.00 0.00 88 1011.1
20260506060320 53 23 0.0 0.0 0.00 0.00 0.00 88 1011.0
20260506051319 47 23 0.0 0.0 0.00 0.00 0.00 87 1010.9
20260506050319 45 23 0.0 0.0 0.00 0.00 0.00 87 1010.9
20260506044819 44 23 0.0 0.0 0.00 0.00 0.00 87 1010.9
20260506044320 44 23 0.0 0.0 0.00 0.00 0.00 87 1010.9
20260506043819 43 23 0.0 0.0 0.00 0.00 0.00 87 1010.7
20260506043319 43 23 0.0 0.0 0.00 0.00 0.00 87 1010.8
20260506042820 43 23 0.0 0.0 0.00 0.00 0.00 86 1010.8
20260506042319 43 23 0.0 0.0 0.00 0.00 0.00 86 1010.8
20260506041821 43 23 0.0 0.0 0.00 0.00 0.00 86 1010.7
20260506040820 43 23 0.0 0.0 0.00 0.00 0.00 86 1010.6
20260506040320 43 23 0.0 0.0 0.00 0.00 0.00 86 1010.5
20260506035820 43 23 0.0 0.0 0.00 0.00 0.00 86 1010.5
20260506034820 43 23 0.0 0.0 0.00 0.00 0.00 86 1010.4
20260506034320 43 23 0.0 0.0 0.00 0.00 0.00 86 1010.5
20260506032818 43 23 0.0 0.0 0.00 0.00 0.00 86 1010.4
20260506031820 43 23 0.0 0.0 0.00 0.00 0.00 86 1010.4
20260506031323 43 23 0.0 0.0 0.00 0.00 0.00 86 1010.5
20260506030320 44 23 0.0 0.0 0.00 0.00 0.00 85 1010.6
20260506025821 44 23 0.0 0.0 0.00 0.00 0.00 85 1010.5
20260506024819 44 23 0.0 0.0 0.00 0.00 0.00 86 1010.5
20260506024321 44 23 0.0 0.0 0.00 0.00 0.00 85 1010.5
20260506023819 44 23 0.0 0.0 0.00 0.00 0.00 85 1010.3
20260506023322 44 23 0.0 0.0 0.00 0.00 0.00 85 1010.4
20260506022821 45 23 0.0 0.0 0.00 0.00 0.00 85 1010.3
20260506021821 45 23 0.0 0.0 0.00 0.00 0.00 85 1010.2
20260506021322 45 23 0.0 0.0 0.00 0.00 0.00 85 1010.3
20260506020819 45 23 0.0 0.0 0.00 0.00 0.00 85 1010.2
20260506020319 46 23 0.0 0.0 0.00 0.00 0.00 85 1010.3
20260506015819 46 23 0.0 0.0 0.00 0.00 0.00 85 1010.1
20260506014820 45 23 0.0 0.0 0.00 0.00 0.00 85 1010.2
20260506013820 46 23 0.0 0.0 0.00 0.00 0.00 85 1010.1
20260506013322 46 23 0.0 0.0 0.00 0.00 0.00 85 1010.1
20260506012823 46 0 0.0 0.0 0.00 0.00 0.00 84 1010.1
20260506012322 46 0 0.0 0.0 0.00 0.00 0.00 84 1010.0
20260506010822 47 0 0.0 0.0 0.00 0.00 0.00 84 1010.0
20260506010322 47 0 0.0 0.0 0.00 0.00 0.00 84 1009.8
20260506005822 47 0 0.0 0.0 0.00 0.00 0.00 84 1010.0
20260506005322 47 0 0.0 0.0 0.00 0.00 0.00 84 1009.7
20260506004823 47 23 0.0 0.0 0.00 0.00 0.00 84 1010.0
20260506003822 47 23 0.0 0.0 0.00 0.00 0.00 84 1010.0
20260506002822 48 23 0.0 0.0 0.00 0.00 0.00 84 1009.8
20260506002323 48 23 0.0 0.0 0.00 0.00 0.00 84 1009.9
20260506001823 48 315 0.0 0.0 0.00 0.00 0.00 84 1010.0
20260506000822 48 315 0.0 0.0 0.00 0.00 0.00 83 1010.0
20260506000323 48 23 0.0 0.0 0.00 0.00 0.00 82 1010.1
20260505235823 48 23 0.0 0.0 0.00 0.00 0.00 82 1010.0
20260505235323 49 23 0.0 0.0 0.00 0.00 0.00 82 1010.0
20260505234823 49 0 0.0 0.0 0.00 0.00 0.00 82 1010.1
20260505233823 49 0 0.0 0.0 0.00 0.00 0.00 81 1010.2
20260505233323 49 0 0.0 0.0 0.00 0.00 0.00 81 1010.1
20260505232824 49 0 0.0 0.0 0.00 0.00 0.00 81 1010.2
20260505232323 49 23 0.0 0.0 0.00 0.00 0.00 80 1010.2
20260505231823 49 23 0.0 0.0 0.00 0.00 0.00 80 1010.1
20260505230824 50 338 0.0 0.0 0.00 0.00 0.00 79 1010.2
20260505230323 50 338 0.0 0.0 0.00 0.00 0.00 79 1010.2
20260505224824 51 23 0.0 0.0 0.00 0.00 0.00 78 1010.3
20260505223323 51 338 0.0 0.0 0.00 0.00 0.00 78 1010.4
20260505222824 51 338 0.0 0.0 0.00 0.00 0.00 78 1010.3
20260505222324 51 338 0.0 0.0 0.00 0.00 0.00 78 1010.3
20260505221824 51 338 0.0 0.0 0.00 0.00 0.00 78 1010.4
20260505221326 51 338 0.0 0.0 0.00 0.00 0.00 77 1010.3
20260505220824 51 23 0.0 0.0 0.00 0.00 0.00 77 1010.4
20260505220324 52 23 0.0 0.0 0.00 0.00 0.00 76 1010.4
20260505215324 52 68 0.0 0.0 0.00 0.00 0.00 75 1010.3
20260505214824 53 68 0.0 0.0 0.00 0.00 0.00 74 1010.4
20260505214324 53 68 0.0 0.0 0.00 0.00 0.00 74 1010.2
20260505213825 53 23 0.0 0.0 0.00 0.00 0.00 74 1010.1
20260505213324 54 23 0.0 0.0 0.00 0.00 0.00 74 1010.3
20260505212824 54 23 0.0 0.0 0.00 0.00 0.00 74 1010.3
20260505212326 54 23 0.0 0.0 0.00 0.00 0.00 73 1010.4
20260505211824 55 23 0.0 0.0 0.00 0.00 0.00 73 1010.5
20260505210826 55 203 0.0 0.0 0.00 0.00 0.00 72 1010.5
20260505210324 55 203 0.0 0.0 0.00 0.00 0.00 72 1010.4
20260505205825 55 203 0.0 0.0 0.00 0.00 0.00 72 1010.6
20260505205325 55 158 0.0 0.0 0.00 0.00 0.00 73 1010.6
20260505204325 55 158 0.0 0.0 0.00 0.00 0.00 70 1010.4
20260505203826 56 158 0.0 0.0 0.00 0.00 0.00 70 1010.7
20260505203325 56 158 0.0 0.0 0.00 0.00 0.00 70 1010.6
20260505202825 56 158 0.0 0.0 0.00 0.00 0.00 70 1010.6
20260505202325 57 158 0.0 0.0 0.00 0.00 0.00 70 1010.5
20260505201825 57 135 1.0 3.0 0.00 0.00 0.00 71 1010.6
20260505201325 57 135 1.0 3.0 0.00 0.00 0.00 70 1010.6
20260505200825 57 180 0.0 2.0 0.00 0.00 0.00 70 1010.4
20260505195913 58 135 0.0 0.0 0.00 0.00 0.00 68 1010.5
20260505195825 58 135 0.0 0.0 0.00 0.00 0.00 68 1010.5
20260505195326 58 135 0.0 0.0 0.00 0.00 0.00 68 1010.5
20260505194826 58 158 0.0 5.0 0.00 0.00 0.00 68 1010.6
20260505194326 58 158 1.0 5.0 0.00 0.00 0.00 68 1010.5
20260505193825 58 158 0.0 0.0 0.00 0.00 0.00 68 1010.7
20260505193326 59 158 0.0 0.0 0.00 0.00 0.00 67 1010.8
20260505192826 59 135 0.0 2.0 0.00 0.00 0.00 67 1010.7
20260505192326 59 135 3.0 6.0 0.00 0.00 0.00 67 1010.8
20260505191826 60 180 5.0 8.0 0.00 0.00 0.00 67 1010.8
20260505191327 59 158 6.0 8.0 0.00 0.00 0.00 67 1010.8
20260505190826 60 158 5.0 8.0 0.00 0.00 0.00 67 1010.7
20260505190326 59 158 3.0 5.0 0.00 0.00 0.00 67 1010.6
20260505185826 59 203 4.0 5.0 0.00 0.00 0.00 66 1010.8
20260505185327 59 135 3.0 5.0 0.00 0.00 0.00 65 1010.8
20260505184826 60 135 3.0 5.0 0.00 0.00 0.00 65 1010.7
20260505184326 60 135 1.0 4.0 0.00 0.00 0.00 64 1010.7
20260505183826 60 158 0.0 0.0 0.00 0.00 0.00 63 1010.8
20260505183326 60 158 2.0 6.0 0.00 0.00 0.00 63 1010.8
20260505182826 60 158 5.0 6.0 0.00 0.00 0.00 63 1010.7
20260505182326 61 180 5.0 7.0 0.00 0.00 0.00 63 1010.4
20260505181826 61 158 4.0 7.0 0.00 0.00 0.00 63 1010.7
20260505180827 61 135 6.0 8.0 0.00 0.00 0.00 62 1010.6
20260505175827 61 158 8.0 13.0 0.00 0.00 0.00 62 1010.8
20260505175327 62 158 7.0 10.0 0.00 0.00 0.00 61 1010.8
20260505174827 62 158 4.0 7.0 0.00 0.00 0.00 61 1010.9
20260505174327 62 180 5.0 7.0 0.00 0.00 0.00 60 1010.9
20260505173827 62 158 5.0 7.0 0.00 0.00 0.00 60 1010.9
20260505173327 62 158 6.0 7.0 0.00 0.00 0.00 59 1010.9
20260505172827 63 158 5.0 6.0 0.00 0.00 0.00 59 1011.0
20260505172327 63 158 6.0 9.0 0.00 0.00 0.00 58 1011.2
20260505171828 64 158 6.0 11.0 0.00 0.00 0.00 58 1010.9
20260505171327 64 158 8.0 13.0 0.00 0.00 0.00 57 1010.9
20260505170827 64 135 9.0 13.0 0.00 0.00 0.00 57 1011.2
20260505170327 64 158 8.0 11.0 0.00 0.00 0.00 57 1011.2
20260505165827 65 158 8.0 10.0 0.00 0.00 0.00 57 1011.2
20260505165327 65 158 6.0 9.0 0.00 0.00 0.00 56 1011.3
20260505164327 65 203 4.0 9.0 0.00 0.00 0.00 55 1011.3
20260505163828 65 158 5.0 11.0 0.00 0.00 0.00 55 1011.3
20260505163328 66 203 6.0 11.0 0.00 0.00 0.00 54 1011.3
20260505162829 66 135 3.0 7.0 0.00 0.00 0.00 54 1011.4
20260505160828 66 203 3.0 5.0 0.00 0.00 0.00 53 1011.6
20260505160328 66 293 3.0 9.0 0.00 0.00 0.00 52 1011.7
20260505153328 68 135 6.0 13.0 0.00 0.00 0.00 51 1011.3
20260505152828 67 135 8.0 13.0 0.00 0.00 0.00 51 1011.5
20260505151828 67 158 4.0 8.0 0.00 0.00 0.00 52 1011.4
20260505151329 67 158 6.0 8.0 0.00 0.00 0.00 52 1011.4
20260505150828 67 180 5.0 8.0 0.00 0.00 0.00 52 1011.3
20260505150328 67 225 2.0 8.0 0.00 0.00 0.00 52 1011.6
20260505140329 68 158 5.0 9.0 0.00 0.00 0.00 49 1011.6
20260505123830 68 180 4.0 4.0 0.00 0.00 0.00 48 1012.3
20260505123330 68 158 4.0 6.0 0.00 0.00 0.00 48 1012.3
20260505122830 68 158 6.0 9.0 0.00 0.00 0.00 47 1012.5
20260505121830 69 158 5.0 6.0 0.00 0.00 0.00 47 1012.4
20260505121331 69 158 8.0 11.0 0.00 0.00 0.00 45 1012.7
20260505120331 70 180 7.0 10.0 0.00 0.00 0.00 44 1012.4
20260505115831 71 113 8.0 13.0 0.00 0.00 0.00 43 1012.4
20260505115331 71 0 7.0 13.0 0.00 0.00 0.00 42 1012.5
20260505114831 73 158 6.0 9.0 0.00 0.00 0.00 41 1012.6
20260505114331 74 158 5.0 9.0 0.00 0.00 0.00 41 1012.3
20260505113831 73 158 9.0 12.0 0.00 0.00 0.00 42 1012.1
20260505113331 73 180 5.0 12.0 0.00 0.00 0.00 41 1012.2
20260505112832 73 180 3.0 7.0 0.00 0.00 0.00 41 1012.3
20260505112331 73 180 6.0 17.0 0.00 0.00 0.00 41 1012.5
20260505111831 73 158 12.0 17.0 0.00 0.00 0.00 40 1012.3
20260505110831 74 158 11.0 18.0 0.00 0.00 0.00 39 1011.9
20260505110331 75 158 8.0 11.0 0.00 0.00 0.00 38 1011.6
20260505101832 76 158 11.0 16.0 0.00 0.00 0.00 39 1011.5
20260505101333 76 158 9.0 16.0 0.00 0.00 0.00 38 1011.3
20260505100832 77 180 6.0 11.0 0.00 0.00 0.00 37 1011.4
20260505100332 77 135 6.0 12.0 0.00 0.00 0.00 38 1011.4
20260505095332 77 158 9.0 15.0 0.00 0.00 0.00 41 1011.2
20260505094332 76 158 9.0 13.0 0.00 0.00 0.00 41 1011.3